Regional Weather Roundup
Issued by NWS Bismarck, ND

Home | Current Version | Previous Version | Text Only | Print | Product List | Glossary On
Versions: 1 2 3 4 5 6 7 8 9 10 11 12 13 14 15 16 17 18 19 20 21 22 23 24 25 26 27 28 29 30 31 32 33 34 35 36 37 38 39 40 41 42 43 44 45 46 47 48 49 50
108
ASUS43 KBIS 280102
RWRBIS

NWR BROADCAST TEXT
NATIONAL WEATHER SERVICE BISMARCK ND
800 PM CDT WED JUL 27 2016

NOTE: "FAIR" INDICATES FEW OR NO CLOUDS BELOW 12,000 FEET WITH NO
SIGNIFICANT WEATHER AND/OR OBSTRUCTIONS TO VISIBILITY.


CITY           SKY/WX    TMP DP  RH WIND       PRES   REMARKS
WILLISTON      CLOUDY    70  61  73 E9        30.13S
MINOT          CLOUDY    73  59  61 NE7       30.12R
MINOT AFB      CLOUDY    72  56  58 NE6       30.11S
BISMARCK       CLOUDY    73  60  63 E8        30.10R
DICKINSON      PTSUNNY   72  59  63 NE13      30.10S
GARRISON         N/A     70  60  70 E7        30.12R
HETTINGER ARPT SUNNY     75  59  57 NE9       30.12F
JAMESTOWN      PTSUNNY   72  58  61 N9        30.09R
CARRINGTON     FAIR      70  57  64 NE9       30.13S
HAZEN          MOCLDY    72  61  68 NE5       30.12S
OAKES            N/A    N/A N/A N/A MISG        N/A
STANLEY        CLOUDY    64  64 100 CALM      30.17F
$$

CITY           SKY/WX    TMP DP  RH WIND       PRES   REMARKS
GRAND FORKS    CLOUDY    72  58  61 NW9       30.05R
GRAND FORKS AF CLOUDY    71  57  61 N10       30.08R
DEVILS LAKE    MOSUNNY   70  54  56 NE9       30.12R
FARGO          MOCLDY    75  60  59 N15       30.02R
CAVALIER       FAIR      70  57  64 N8        30.10R
GRAFTON        FAIR      72  59  64 N13       30.09R
GWINNER        FAIR      73  57  56 N9        30.07R
LANGDON        FAIR      68  57  68 NE12      30.13R
ROLLA          FAIR      66  54  63 NE8       30.16R
$$

CITY           SKY/WX    TMP DP  RH WIND       PRES   REMARKS
ABERDEEN       MOSUNNY   76  61  59 N8        30.06S
MOBRIDGE       LGT RAIN  74  62  66 NE10      30.05R
BUFFALO          N/A     75  54  47 E10       30.07R
RAPID CITY     SUNNY     79  58  48 NE7       30.11R
GLASGOW        LGT RAIN  65  61  87 E14       30.11F
SIDNEY         SUNNY     71  61  70 NE13      30.12S
WOLF POINT     CLOUDY    74  57  55 NE7       30.12S
GLENDIVE       SUNNY     73  59  61 NE13      30.11S
MILES CITY     SUNNY     83  56  39 NE9       30.05S
BAKER          SUNNY     76  59  55 E9        30.12F
$$

CITY           SKY/WX    TMP DP  RH WIND       PRES   REMARKS
BILLINGS       CLOUDY    75  57  53 NE7       30.11F
GREAT FALLS    SUNNY     82  46  28 NE14      30.12F
$$





USA.gov is the U.S. government's official web portal to all federal, state and local government web resources and services.